EHI
0 0 0 0 0 0 0 0 0 0 0 0 0 0 0 0 0 0 0 0 0 0 0 0 0 0 0 0 0 0 0 0 0 0 0 0 0 0 0 0 0 0 0
0 0 0 0 0 0 0 0 0 0 0 0 0 0 0 0 0 0 0 0 0 0 0 0 0 0 0 0 0 0 0 0 0 0 0 0 0 0 0 0 0 0 0
0 0 0 0 0 0 0 0 0 0 0 0 0 0 0 0 0 0 0 0 0 0 0 0 0 0 0 0 0 0 0 0 0 0 0 0 0 0 0 0 0 0 0
0 0 0 0 0 0 0 0 0 0 0 0 0 0 0 0 0 0 0 0 0 0 0 0 0 0 0 0 0 0 0 0 0 0 0 0 0 0 0 0 0 0 0
0 0 0 0 0 0 0 0 0 0 0 0 0 0 0 0 0 0 0 0 0 0 0 0 0 0 0 0 0 0 0 0 0 0 0 0 0 0 0 0 0 0 0
0 0 0 0 0 0 0 0 0 0 0 0 0 0 0 0 0 0 0 0 0 0 0 0 0 0 0 0 0 0 0 0 0 0 0 0 0 0 0 0 0 0 0
0 0 0 0 0 0 0 0 0 0 0 0 0 0 0 0 0 0 0 0 0 0 0 0 0 0 0 0 0 0 0 0 0 0 0 0 0 0 0 0 0 0 0
0 0 0 0 0 0 0 0 0 0 0 0 0 0 0 0 0 0 0 0 0 0 0 0 0 0 0 0 0 0 0 0 0 0 0 0 0 0 0 0 0 0 0
0 0 0 0 0 0 0 0 0 0 0 0 0 0 0 0 0 0 0 0 0 0 0 0 0 0 0 0 0 0 0 0 0 0 0 0 0 0 0 0 0 0 0
0 0 0 0 0 0 0 0 0 0 0 0 0 0 0 0 0 0 0 0 0 0 0 0 0 0 0 0 0 0 0 0 0 0 0 0 0 0 0 0 0 0 0
0 0 0 0 0 0 0 0 0 0 0 0 0 0 0 0 0 0 0 0 0 0 0 0 0 0 0 0 0 0 0 0 0 0 0 0 0 0 0 0 0 0 0
0 0 0 0 0 0 0 0 0 0 0 0 0 0 0 0 0 0 0 0 0 0 0 0 0 0 0 0 0 0 0 0 0 0 0 0 0 0 0 0 0 0 0
0 0 0 0 0 0 0 0 0 0 0 0 0 0 0 0 0 0 0 0 0 0 0 0 0 0 0 0 0 0 0 0 0 0 0 0 0 0 0 0 0 0 0
0 0 0 0 0 0 0 0 0 0 0 0 0 0 0 0 0 0 0 0 0 0 0 0 0 0 0 0 0 0 0 0 0 0 0 0 0 0 0 0 0 0 0
0 0 0 0 0 0 0 0 0 0 0 0 0 0 0 0 0 0 0 0 0 0 0 0 0 0 0 0 0 0 0 0 0 0 0 0 0 0 0 0 0 0 0
0 0 0 0 0 0 0 0 0 0 0 0 0 0 0 0 0 0 0 0 0 0 0 0 0 0 0 0 0 0 0 0 0 0 0 0 0 0 0 0 0 0 0
0 0 0 0 0 0 0 0 0 0 0 0 0 0 0 0 0 0 0 0 0 0 0 0 0 0 0 0 0 0 0 0 0 0 0 0 0 0 0 0 0 0 0
0 0 0 0 0 0 0 0 0 0 0 0 0 0 0 0 0 0 0 0 0 0 0 0 0 0 0 0 0 0 0 0 0 0 0 0 0 0 0 0 0 0 0
0 0 0 0 0 0 0 0 0 0 0 0 0 0 0 0 0 0 0 0 0 0 0 0 0 0 0 0 0 0 0 0 0 0 0 0 0 0 0 0 0 0 0
0 0 0 0 0 0 0 0 0 0 0 0 0 0 0 0 0 0 0 0 0 0 0 0 0 0 0 0 0 0 0 0 0 0 0 0 0 0 0 0 0 0 0
0 0 0 0 0 0 0 0 0 0 0 0 0 0 0 0 0 0 0 0 0 0 0 0 0 0 0 0 0 0 0 0 0 0 0 0 0 0 0 0 0 0 0
0 0 0 0 0 0 0 0 0 0 0 0 0 0 0 0 0 0 0 0 0 0 0 0 0 0 0 0 0 0 0 0 0 0 0 0 0 0 0 0 0 0 0
0 0 0 0 0 0 0 0 0 0 0 0 0 0 0 0 0 0 0 0 0 0 0 0 0 0 0 0 0 0 0 0 0 0 0 0 0 0 0 0 0 0 0
0 0 0 0 0 0 0 0 0 0 0 0 0 0 0 0 0 0 0 0 0 0 0 0 0 0 0 0 0 0 0 0 0 0 0 0 0 0 0 0 0 0 0
0 0 0 0 0 0 0 0 0 0 0 0 0 0 0 0 0 0 0 0 0 0 0 0 0 0 0 0 0 0 0 0 0 0 0 0 0 0 0 0 0 0 0
0 0 0 0 0 0 0 0 0 0 0 0 0 0 0 0 0 0 0 0 0 0 0 0 0 0 0 0 0 0 0 0 0 0 0 0 0 0 0 0 0 0 0
Wind_Speed
1 1 2 1 1 2 2 1 1 1 1 1 1 1 1 1 1 1 1 1 2 1 0 1 1 1 2 1 1 2 2 2 3 3 2 2 2 2 3 2 3 3 3
2 2 1 1 2 2 1 1 1 1 1 1 1 1 1 1 1 1 1 1 1 1 1 1 1 1 1 1 1 1 1 2 2 3 2 2 2 3 3 3 3 3 3
2 2 2 2 2 1 1 1 1 1 1 1 1 1 1 1 1 1 1 1 1 1 1 1 1 1 1 1 2 2 2 2 2 2 3 2 2 2 2 3 3 3 3
2 2 2 2 2 2 1 1 1 1 1 1 1 1 1 1 1 1 1 1 1 1 1 1 2 2 3 2 2 2 2 2 2 2 3 3 2 2 2 2 3 2 3
3 2 2 2 2 2 1 1 1 1 1 0 0 0 0 1 1 1 1 1 1 1 1 1 2 2 3 3 2 2 2 2 2 2 3 2 2 2 3 2 3 3 4
3 3 3 2 2 2 2 1 1 1 1 1 0 1 1 1 2 2 1 1 1 1 1 1 2 2 3 4 4 4 4 3 3 3 3 4 4 4 3 3 3 4 4
3 3 3 3 3 2 2 2 2 1 1 1 1 1 1 2 3 3 2 1 2 1 2 2 2 2 3 2 4 5 5 7 7 4 5 5 5 4 4 4 4 5 5
3 3 3 3 3 2 2 2 2 1 2 2 2 2 2 2 3 3 3 1 1 1 2 3 3 3 3 3 3 3 4 5 6 4 5 5 5 5 5 5 5 4 4
4 3 3 4 3 3 3 2 2 2 1 2 2 2 2 3 3 3 2 1 1 2 2 2 3 3 6 6 3 3 4 4 6 8 8 8 8 8 5 2 2 3 5
4 4 3 3 4 4 3 2 1 2 2 2 2 2 2 3 4 4 3 2 2 2 2 3 5 5 7 7 3 3 4 4 4 4 5 5 4 5 7 4 3 4 4
3 3 3 3 3 3 3 2 2 2 1 2 2 2 2 3 4 5 4 2 2 2 2 2 3 7 7 7 5 3 5 4 2 3 3 3 3 3 3 3 4 4 5
3 3 3 3 3 2 3 2 2 2 2 2 2 2 2 2 4 5 6 5 4 3 3 3 4 7 7 7 5 6 7 5 2 2 3 3 3 3 3 3 3 4 4
3 3 3 3 2 2 3 3 2 2 2 2 2 2 2 2 3 6 7 7 7 3 3 6 7 7 6 4 6 7 5 2 2 3 3 4 3 3 3 2 3 3 4
4 4 3 3 3 2 2 3 3 3 3 2 3 3 2 2 3 3 3 4 5 4 3 5 7 6 4 5 4 4 2 2 3 3 3 3 3 3 3 3 3 2 3
4 3 3 3 3 3 3 3 3 3 4 4 3 3 3 3 4 6 3 3 2 2 2 1 1 2 2 2 2 2 2 2 3 3 3 3 3 3 3 3 3 3 3
4 3 3 3 3 2 2 2 4 4 5 6 6 5 4 6 7 7 7 6 5 5 2 2 2 3 3 3 3 3 3 3 3 3 3 3 4 4 4 3 3 3 4
4 4 3 3 3 3 3 3 2 2 4 5 6 7 6 7 7 7 6 5 5 4 3 2 2 3 3 3 3 3 3 3 3 3 4 4 4 4 4 4 3 3 4
4 4 4 3 3 3 3 3 3 2 2 2 4 6 6 7 6 6 5 4 2 2 2 3 3 3 3 3 3 3 3 3 3 3 4 4 3 4 4 4 4 4 4
3 3 3 3 3 3 3 3 2 3 2 2 2 3 5 5 5 5 4 2 2 2 2 3 3 3 3 3 3 3 4 4 4 3 4 4 3 3 4 4 4 5 5
3 5 4 3 3 3 3 3 3 3 3 2 3 2 2 2 2 2 2 2 2 3 3 3 3 3 3 3 3 3 4 4 4 4 4 4 4 4 4 5 4 4 4
2 3 4 3 3 3 3 3 3 3 3 3 3 3 4 2 3 3 3 3 3 3 3 3 3 3 3 3 3 4 4 4 4 3 3 4 4 4 4 4 4 4 4
2 2 2 2 2 2 3 3 3 3 3 3 2 3 5 2 2 3 3 3 3 3 3 3 3 3 3 4 4 4 4 4 4 4 4 4 4 4 4 4 3 3 3
2 2 2 2 2 3 3 2 3 3 3 3 3 2 2 2 2 3 3 3 3 3 3 3 3 3 3 3 4 4 4 4 4 4 4 4 4 4 4 4 4 4 4
2 2 2 2 2 2 2 2 2 3 3 3 3 3 3 3 3 3 3 3 3 3 3 3 3 5 5 4 4 4 4 5 4 4 6 5 5 5 4 4 4 4 4
2 2 2 2 2 2 2 2 2 2 2 3 3 3 3 3 3 3 3 3 3 3 4 4 3 4 5 6 6 5 7 9 9 6 4 4 5 5 5 4 4 4 3
2 2 2 2 2 2 2 2 2 3 3 3 3 3 3 3 3 3 3 3 3 3 4 4 4 5 6 5 7 8 10 10 10 9 5 4 4 4 4 4 4 4 4
Wind_Direction
136 124 113 122 112 97 100 115 135 124 121 147 136 119 109 100 107 125 122 137 144 124 137 181 210 215 205 212 199 191 200 201 243 271 264 275 269 281 296 285 279 265 275
137 121 129 125 109 100 94 92 103 110 116 124 111 112 119 118 122 129 125 111 149 161 190 175 202 208 204 214 204 213 232 231 230 263 279 278 272 268 274 284 295 291 275
136 127 127 130 128 128 118 97 93 102 99 88 100 119 123 126 135 141 146 141 144 171 196 198 210 188 221 235 219 215 231 255 240 253 274 275 276 274 287 295 293 292 296
142 142 151 165 165 158 136 122 117 109 104 110 128 154 153 154 148 146 147 154 167 190 197 216 220 207 214 227 231 224 232 241 240 250 264 269 264 267 269 283 297 292 294
155 164 185 184 167 150 143 142 128 115 116 142 152 200 219 186 182 184 187 190 199 220 256 253 250 263 259 252 252 230 227 230 236 247 261 272 267 267 262 256 279 293 286
170 188 185 171 163 164 164 148 135 132 125 116 177 221 249 258 256 244 201 186 199 214 252 282 279 274 278 288 288 279 264 245 238 239 251 253 259 255 255 265 276 289 287
178 192 188 178 177 182 172 154 162 170 162 181 227 225 238 255 266 266 251 180 182 213 236 259 287 290 292 263 279 286 279 276 267 254 247 251 253 247 248 259 259 265 269
180 189 191 183 187 188 178 183 191 190 190 202 222 231 240 258 270 272 266 185 194 228 239 242 249 264 271 271 259 262 261 267 269 263 249 252 252 245 233 245 254 267 274
190 195 195 187 187 191 195 203 205 193 207 214 219 223 238 264 272 274 261 176 217 244 253 254 260 257 283 298 283 271 276 278 280 277 277 278 281 278 270 255 252 263 278
204 203 198 191 190 196 202 207 211 199 209 214 233 231 236 252 265 268 251 197 223 249 260 265 276 280 286 295 277 257 267 273 279 288 289 295 287 272 269 240 232 251 270
197 189 190 190 192 197 199 201 196 200 195 213 238 248 242 249 266 271 260 219 218 237 252 257 263 284 290 298 300 265 274 294 276 276 280 281 280 265 254 245 237 238 251
176 183 191 192 197 193 183 194 193 188 195 219 235 260 258 263 268 270 273 265 251 230 245 251 259 279 287 296 299 293 299 308 287 284 283 281 278 276 273 269 260 255 253
174 189 197 196 201 196 190 194 193 190 198 218 226 252 269 268 273 277 276 275 271 260 254 269 277 281 286 284 289 297 303 288 274 275 277 278 275 273 275 279 278 272 274
184 193 194 193 203 204 202 201 201 198 206 223 235 247 260 266 263 262 259 268 273 274 272 277 281 284 282 281 286 290 282 271 276 269 276 281 286 284 277 271 274 280 284
187 196 198 201 203 211 215 215 216 217 211 214 223 230 240 256 265 268 258 244 239 245 257 259 256 255 258 261 266 270 270 278 280 275 275 282 284 283 284 279 269 271 266
187 199 202 201 205 208 213 243 244 237 243 243 245 245 253 265 281 282 279 273 271 265 253 248 254 250 252 261 268 271 264 264 267 270 271 271 278 282 285 283 276 268 271
194 201 202 201 203 206 209 217 242 263 259 259 258 262 265 273 278 283 283 281 277 268 253 252 255 259 261 264 265 265 265 263 265 265 267 268 272 276 276 276 275 274 273
198 207 206 205 204 208 212 217 219 227 252 271 273 275 276 279 283 284 282 285 282 275 249 253 257 264 266 267 270 272 271 269 267 269 268 264 263 269 273 272 270 268 273
199 202 201 203 204 206 209 212 217 225 237 254 276 287 286 287 290 292 287 252 240 251 255 259 260 264 268 268 268 269 267 267 267 269 270 268 262 262 266 268 271 275 276
209 210 205 200 199 201 203 208 215 221 231 241 251 258 272 276 270 278 267 251 248 250 252 256 259 261 263 263 264 264 265 266 266 266 267 267 265 262 264 265 265 268 269
200 207 206 205 204 204 204 210 215 219 229 239 246 253 254 233 239 249 251 250 250 254 255 257 258 260 259 257 258 260 261 264 264 265 266 264 263 264 263 263 263 263 265
192 200 197 198 201 206 209 211 214 222 231 240 250 262 271 257 243 248 249 253 256 257 257 258 261 259 256 254 254 258 262 264 265 263 264 268 270 264 261 261 262 263 262
187 192 199 200 200 215 222 218 216 223 233 239 243 247 253 251 252 255 259 262 263 262 259 256 259 263 262 258 253 251 255 259 259 258 261 265 267 264 256 256 256 257 257
178 186 191 197 204 212 220 224 224 229 235 241 242 245 248 250 254 259 262 265 265 266 263 258 258 264 269 271 266 260 259 263 260 252 250 253 261 264 257 254 255 253 249
177 183 191 202 212 219 225 229 233 236 242 249 251 252 253 253 257 260 259 257 260 263 266 265 263 263 266 269 271 270 275 277 275 267 250 245 249 253 252 251 251 252 249
183 190 196 200 210 219 225 231 237 242 245 249 253 254 255 255 258 261 261 258 258 261 265 265 265 268 271 272 270 274 279 279 278 276 268 247 242 247 247 246 243 244 242